• In Uzbekistan
  • List of Countries
  • For 7 days
  • Water Temperature
  • Satellite Maps
  • Weather Map
  • Weather Widgets
  • user-avatar
    Login

    Hourly Weather Aschersleben

    Today, 20 November, Monday

    Time Temperature Precipitation Wind Pressure Humidity
    00:00 +3°C° 0.1 mm 7 mps 747 mmHg 82%
    01:00 +2°C° 0.1 mm 7 mps 747 mmHg 83%
    02:00 +2°C° 0.1 mm 6 mps 747 mmHg 83%
    03:00 +2°C° 0.1 mm 6 mps 747 mmHg 83%
    04:00 +2°C° 0.1 mm 6 mps 748 mmHg 83%
    05:00 +2°C° 0 mm 6 mps 748 mmHg 84%
    06:00 +2°C° 0 mm 6 mps 748 mmHg 85%
    07:00 +2°C° 0 mm 5 mps 748 mmHg 86%
    08:00 +2°C° 0.2 mm 5 mps 748 mmHg 85%
    09:00 +2°C° 0.2 mm 6 mps 748 mmHg 83%
    10:00 +3°C° 0.2 mm 6 mps 749 mmHg 82%
    11:00 +3°C° 0.3 mm 6 mps 748 mmHg 80%
    12:00 +3°C° 0.3 mm 6 mps 748 mmHg 78%
    13:00 +3°C° 0.3 mm 6 mps 748 mmHg 76%
    14:00 +3°C° 0.1 mm 5 mps 748 mmHg 77%
    15:00 +3°C° 0.1 mm 5 mps 747 mmHg 78%
    16:00 +4°C° 0.1 mm 4 mps 747 mmHg 79%
    17:00 +3°C° 0.5 mm 4 mps 746 mmHg 80%
    18:00 +3°C° 0.5 mm 4 mps 745 mmHg 82%
    19:00 +2°C° 0.5 mm 5 mps 745 mmHg 83%
    20:00 +2°C° 2 mm 5 mps 744 mmHg 85%
    21:00 +4°C° 2 mm 4 mps 744 mmHg 87%
    22:00 +4°C° 2 mm 4 mps 743 mmHg 90%
    23:00 +5°C° 1 mm 5 mps 743 mmHg 90%

    Tomorrow, 21 November, Tuesday

    Time Temperature Precipitation Wind Pressure Humidity
    00:00 +6°C° 1 mm 5 mps 742 mmHg 90%
    01:00 +7°C° 1 mm 6 mps 742 mmHg 90%
    02:00 +7°C° 0.5 mm 6 mps 742 mmHg 90%
    03:00 +7°C° 0.5 mm 5 mps 742 mmHg 90%
    04:00 +8°C° 0.5 mm 5 mps 742 mmHg 90%
    05:00 +8°C° 0.5 mm 5 mps 742 mmHg 91%
    06:00 +8°C° 0.5 mm 5 mps 742 mmHg 91%
    07:00 +8°C° 0.5 mm 5 mps 742 mmHg 91%
    08:00 +8°C° 0.3 mm 5 mps 743 mmHg 90%
    09:00 +8°C° 0.3 mm 5 mps 743 mmHg 90%
    10:00 +8°C° 0.3 mm 5 mps 743 mmHg 89%
    11:00 +9°C° 0.1 mm 5 mps 744 mmHg 87%
    12:00 +9°C° 0.1 mm 5 mps 744 mmHg 86%
    13:00 +9°C° 0.1 mm 5 mps 744 mmHg 84%
    14:00 +10°C° 0.1 mm 4 mps 744 mmHg 86%
    15:00 +10°C° 0.1 mm 4 mps 744 mmHg 87%
    16:00 +10°C° 0.1 mm 3 mps 744 mmHg 89%
    17:00 +9°C° 0.4 mm 3 mps 744 mmHg 91%
    18:00 +9°C° 0.4 mm 2 mps 744 mmHg 92%
    19:00 +9°C° 0.4 mm 2 mps 745 mmHg 94%
    20:00 +9°C° 0.2 mm 3 mps 745 mmHg 93%
    21:00 +9°C° 0.2 mm 3 mps 745 mmHg 91%
    22:00 +8°C° 0.2 mm 4 mps 745 mmHg 90%
    23:00 +8°C° 0 mm 4 mps 745 mmHg 90%

    Day after tomorrow, 22 November, Wednesday

    Time Temperature Precipitation Wind Pressure Humidity
    00:00 +7°C° 0 mm 4 mps 745 mmHg 89%
    01:00 +7°C° 0 mm 5 mps 744 mmHg 88%
    02:00 +6°C° 0 mm 4 mps 744 mmHg 88%
    03:00 +6°C° 0 mm 4 mps 744 mmHg 88%
    04:00 +6°C° 0 mm 4 mps 744 mmHg 87%
    05:00 +6°C° 0 mm 5 mps 744 mmHg 87%
    06:00 +6°C° 0 mm 5 mps 744 mmHg 87%
    07:00 +6°C° 0 mm 5 mps 744 mmHg 87%
    08:00 +6°C° 0 mm 5 mps 744 mmHg 85%
    09:00 +7°C° 0 mm 5 mps 744 mmHg 82%
    10:00 +7°C° 0 mm 5 mps 744 mmHg 80%
    11:00 +8°C° 0 mm 5 mps 744 mmHg 76%
    12:00 +9°C° 0 mm 5 mps 744 mmHg 72%
    13:00 +10°C° 0 mm 5 mps 744 mmHg 68%
    14:00 +9°C° 0 mm 5 mps 744 mmHg 70%
    15:00 +10°C° 0 mm 4 mps 744 mmHg 73%
    16:00 +8°C° 0 mm 4 mps 744 mmHg 75%
    17:00 +7°C° 0 mm 4 mps 744 mmHg 76%
    18:00 +7°C° 0 mm 4 mps 744 mmHg 77%
    19:00 +6°C° 0 mm 4 mps 744 mmHg 78%
    20:00 +6°C° 0 mm 4 mps 744 mmHg 76%
    21:00 +6°C° 0 mm 5 mps 744 mmHg 74%
    22:00 +6°C° 0 mm 5 mps 744 mmHg 72%
    23:00 +7°C° 0 mm 5 mps 744 mmHg 69%

    23 November, Thursday

    Time Temperature Precipitation Wind Pressure Humidity
    00:00 +7°C° 0 mm 6 mps 744 mmHg 67%
    01:00 +7°C° 0 mm 6 mps 744 mmHg 64%
    02:00 +7°C° 0 mm 6 mps 744 mmHg 64%
    03:00 +6°C° 0 mm 7 mps 744 mmHg 64%
    04:00 +8°C° 0 mm 7 mps 744 mmHg 63%
    05:00 +8°C° 0 mm 7 mps 744 mmHg 65%
    06:00 +8°C° 0 mm 7 mps 744 mmHg 67%
    07:00 +8°C° 0 mm 6 mps 744 mmHg 68%
    08:00 +8°C° 0 mm 7 mps 745 mmHg 69%
    09:00 +9°C° 0 mm 7 mps 745 mmHg 69%
    10:00 +10°C° 0 mm 7 mps 746 mmHg 69%
    11:00 +10°C° 0 mm 7 mps 746 mmHg 68%
    12:00 +11°C° 0 mm 7 mps 747 mmHg 67%
    13:00 +13°C° 0 mm 6 mps 747 mmHg 66%
    14:00 +11°C° 0 mm 6 mps 747 mmHg 70%
    15:00 +12°C° 0 mm 5 mps 748 mmHg 74%
    16:00 +11°C° 0 mm 4 mps 748 mmHg 78%
    17:00 +11°C° 0 mm 4 mps 748 mmHg 80%
    18:00 +10°C° 0 mm 4 mps 749 mmHg 83%
    19:00 +10°C° 0 mm 4 mps 749 mmHg 85%
    20:00 +8°C° 0 mm 4 mps 749 mmHg 86%
    21:00 +8°C° 0 mm 4 mps 750 mmHg 86%
    22:00 +8°C° 0 mm 4 mps 750 mmHg 87%
    23:00 +8°C° 0 mm 4 mps 750 mmHg 87%

    24 November, Friday

    Time Temperature Precipitation Wind Pressure Humidity
    00:00 +8°C° 0 mm 4 mps 750 mmHg 87%
    01:00 +8°C° 0 mm 4 mps 750 mmHg 87%
    02:00 +8°C° 0 mm 4 mps 750 mmHg 86%
    03:00 +8°C° 0 mm 4 mps 750 mmHg 85%
    04:00 +8°C° 0 mm 4 mps 750 mmHg 84%
    05:00 +8°C° 0 mm 4 mps 750 mmHg 83%
    06:00 +8°C° 0 mm 4 mps 750 mmHg 82%
    07:00 +8°C° 0 mm 4 mps 750 mmHg 81%
    08:00 +8°C° 0 mm 4 mps 750 mmHg 77%
    09:00 +9°C° 0 mm 5 mps 750 mmHg 74%
    10:00 +10°C° 0 mm 5 mps 750 mmHg 70%
    11:00 +12°C° 0 mm 5 mps 750 mmHg 68%
    12:00 +13°C° 0 mm 5 mps 750 mmHg 65%
    13:00 +14°C° 0 mm 5 mps 749 mmHg 62%
    14:00 +13°C° 0 mm 4 mps 749 mmHg 65%
    15:00 +12°C° 0 mm 4 mps 749 mmHg 68%
    16:00 +11°C° 0 mm 3 mps 749 mmHg 70%
    17:00 +11°C° 0 mm 3 mps 749 mmHg 71%
    18:00 +10°C° 0 mm 3 mps 749 mmHg 71%
    19:00 +10°C° 0 mm 4 mps 749 mmHg 71%
    20:00 +8°C° 0 mm 4 mps 749 mmHg 69%
    21:00 +8°C° 0 mm 4 mps 749 mmHg 68%
    22:00 +8°C° 0 mm 4 mps 749 mmHg 66%
    23:00 +8°C° 0 mm 4 mps 749 mmHg 64%

    25 November, Saturday

    Time Temperature Precipitation Wind Pressure Humidity
    00:00 +8°C° 0 mm 4 mps 749 mmHg 62%
    01:00 +8°C° 0 mm 4 mps 749 mmHg 61%
    02:00 +8°C° 0 mm 4 mps 748 mmHg 60%
    03:00 +7°C° 0 mm 4 mps 748 mmHg 60%
    04:00 +7°C° 0 mm 4 mps 748 mmHg 59%
    05:00 +7°C° 0 mm 4 mps 747 mmHg 59%
    06:00 +7°C° 0 mm 4 mps 747 mmHg 59%
    07:00 +6°C° 0 mm 4 mps 747 mmHg 59%
    08:00 +7°C° 0 mm 4 mps 747 mmHg 57%
    09:00 +8°C° 0 mm 4 mps 747 mmHg 56%
    10:00 +8°C° 0 mm 5 mps 747 mmHg 55%
    11:00 +9°C° 0 mm 5 mps 746 mmHg 54%
    12:00 +10°C° 0 mm 5 mps 746 mmHg 54%
    13:00 +10°C° 0 mm 5 mps 746 mmHg 53%
    14:00 +10°C° 0 mm 5 mps 745 mmHg 53%
    15:00 +10°C° 0 mm 5 mps 745 mmHg 53%
    16:00 +10°C° 0 mm 6 mps 745 mmHg 53%
    17:00 +10°C° 0 mm 6 mps 746 mmHg 55%
    18:00 +10°C° 0 mm 6 mps 746 mmHg 56%
    19:00 +10°C° 0 mm 6 mps 746 mmHg 58%
    20:00 +10°C° 0 mm 6 mps 747 mmHg 63%
    21:00 +10°C° 0 mm 6 mps 747 mmHg 68%
    22:00 +9°C° 0 mm 6 mps 747 mmHg 72%
    23:00 +9°C° 0 mm 6 mps 748 mmHg 73%
    Show more